Falfurrias, TX

1:58 PM CDT on June 25, 2017 (GMT -0500)
Falfurrias

Weather History for KBKS - July, 2013

Change the Weather History Date:

Saturday, July 27, 2013

  Actual Average (KNQI) Record (KNQI)
Temperature  
Mean Temperature 90 °F -  
Max Temperature 103 °F 94 °F 102 °F (2013)
Min Temperature 77 °F 74 °F 72 °F (1996)
Cooling Degree Days 25    
Growing Degree Days 40 (Base 50)    
Moisture  
Dew Point 71 °F    
Average Humidity 59    
Maximum Humidity 92    
Minimum Humidity 24    
Precipitation  
Precipitation 0.00 in - - ()
Sea Level Pressure  
Sea Level Pressure 29.88 in    
Wind  
Wind Speed 7 mph (SSE)    
Max Wind Speed 15 mph    
Max Gust Speed 20 mph    
Visibility 10 miles    
Events      
Averages and records for this station are not official NWS values.
T = Trace of Precipitation, MM = Missing Value Source: NWS Daily Summary

Daily Weather History Graph

Daily Weather History Graph

Search for Another Location

Airport or City:

Trip Planner

Search our weather history database for the weather conditions in past years. The results will help you decide how hot, cold, wet, or windy it might be!

Date:

Astronomy

Jul. 27, 2013 Rise Set
Actual Time 6:53 AM CDT 8:23 PM CDT
Civil Twilight 6:28 AM CDT 8:49 PM CDT
Nautical Twilight 5:58 AM CDT 9:19 PM CDT
Astronomical Twilight 5:26 AM CDT 9:50 PM CDT
Moon 11:50 PM CDT (7/27) 11:59 AM CDT (7/27)
Length of Visible Light 14h 20m
Length of Day
13h 29m
Waning Gibbous, 70% of the Moon is Illuminated
Jul 27
Waning Gibbous
Jul 29
Last Quarter
Aug 6
New
Aug 14
First Quarter
Aug 20
Full

Hourly Weather History & Observations

Time (CDT) Temp. Heat Index Dew Point Humidity Pressure Visibility Wind Dir Wind Speed Gust Speed Precip Events Conditions
12:15 AM 84.0 °F 91.5 °F 74.5 °F 73% 29.96 in 10.0 mi SSE 8.1 mph - N/A   Clear
12:35 AM 83.5 °F 91.2 °F 75.0 °F 76% 29.95 in 10.0 mi SSE 10.4 mph - N/A   Clear
12:55 AM 82.9 °F 90.2 °F 75.2 °F 77% 29.94 in 10.0 mi SSE 9.2 mph - N/A   Clear
1:15 AM 82.6 °F 89.9 °F 75.6 °F 79% 29.94 in 10.0 mi SSE 9.2 mph - N/A   Clear
1:35 AM 82.4 °F 89.8 °F 75.7 °F 80% 29.94 in 10.0 mi SSE 6.9 mph - N/A   Clear
1:55 AM 82.2 °F 89.9 °F 76.1 °F 82% 29.94 in 10.0 mi SSE 8.1 mph - N/A   Clear
2:15 AM 81.9 °F 89.2 °F 76.1 °F 83% 29.93 in 10.0 mi SSE 5.8 mph - N/A   Clear
2:35 AM 81.5 °F 88.5 °F 76.1 °F 84% 29.93 in 10.0 mi SSE 4.6 mph - N/A   Clear
2:55 AM 80.8 °F 87.1 °F 76.1 °F 86% 29.93 in 10.0 mi SE 4.6 mph - N/A   Clear
3:15 AM 80.2 °F 85.8 °F 75.9 °F 87% 29.93 in 10.0 mi SE 4.6 mph - N/A   Clear
3:35 AM 79.9 °F - 75.7 °F 87% 29.92 in 10.0 mi SE 5.8 mph - N/A   Clear
3:55 AM 79.7 °F - 75.7 °F 88% 29.91 in 10.0 mi SSE 4.6 mph - N/A   Clear
4:15 AM 79.3 °F - 75.6 °F 88% 29.91 in 10.0 mi SSE 5.8 mph - N/A   Clear
4:35 AM 79.0 °F - 75.6 °F 89% 29.89 in 10.0 mi SSE 6.9 mph - N/A   Clear
4:55 AM 78.8 °F - 75.4 °F 89% 29.89 in 10.0 mi SSE 6.9 mph - N/A   Clear
5:15 AM 78.6 °F - 75.4 °F 90% 29.88 in 10.0 mi SSE 5.8 mph - N/A   Clear
5:35 AM 78.4 °F - 75.4 °F 90% 29.89 in 10.0 mi SSE 5.8 mph - N/A   Clear
5:55 AM 78.3 °F - 75.4 °F 91% 29.89 in 10.0 mi SSE 4.6 mph - N/A   Clear
6:15 AM 77.9 °F - 75.2 °F 91% 29.90 in 10.0 mi South 4.6 mph - N/A   Clear
6:35 AM 77.9 °F - 75.2 °F 91% 29.90 in 7.0 mi SSE 6.9 mph - N/A   Clear
6:55 AM 77.5 °F - 75.2 °F 92% 29.90 in 7.0 mi SSE 6.9 mph - N/A   Clear
7:15 AM 77.5 °F - 75.2 °F 92% 29.90 in 7.0 mi SSE 5.8 mph - N/A   Clear
7:35 AM 77.9 °F - 75.2 °F 91% 29.91 in 7.0 mi SSE 4.6 mph - N/A   Clear
7:55 AM 78.4 °F - 75.4 °F 90% 29.91 in 7.0 mi SSE 5.8 mph - N/A   Clear
8:15 AM 79.5 °F - 75.6 °F 88% 29.92 in 7.0 mi South 5.8 mph - N/A   Clear
8:35 AM 80.6 °F 86.4 °F 75.7 °F 85% 29.92 in 10.0 mi South 6.9 mph - N/A   Clear
8:55 AM 82.0 °F 89.4 °F 76.1 °F 82% 29.93 in 10.0 mi South 8.1 mph - N/A   Clear
9:15 AM 83.7 °F 92.0 °F 75.9 °F 77% 29.93 in 10.0 mi SSE 9.2 mph - N/A   Clear
9:35 AM 85.1 °F 93.7 °F 75.0 °F 72% 29.93 in 10.0 mi South 11.5 mph - N/A   Clear
9:55 AM 86.2 °F 95.1 °F 74.8 °F 69% 29.93 in 10.0 mi South 11.5 mph - N/A   Clear
10:15 AM 87.1 °F 94.9 °F 73.8 °F 64% 29.93 in 10.0 mi South 10.4 mph - N/A   Clear
10:35 AM 87.1 °F 95.4 °F 73.9 °F 65% 29.93 in 10.0 mi South 8.1 mph - N/A   Clear
10:55 AM 88.7 °F 96.2 °F 72.9 °F 59% 29.93 in 10.0 mi SSW 8.1 mph - N/A   Clear
11:15 AM 90.1 °F 98.3 °F 73.0 °F 57% 29.93 in 10.0 mi South 6.9 mph - N/A   Clear
11:35 AM 90.5 °F 98.6 °F 72.7 °F 56% 29.93 in 10.0 mi Calm Calm - N/A   Clear
11:55 AM 92.7 °F 99.9 °F 71.8 °F 50% 29.93 in 10.0 mi South 9.2 mph - N/A   Clear
12:15 PM 93.2 °F 100.5 °F 71.6 °F 49% 29.92 in 10.0 mi South 4.6 mph - N/A   Clear
12:35 PM 93.7 °F 99.9 °F 70.3 °F 46% 29.92 in 10.0 mi Calm Calm - N/A   Clear
12:55 PM 94.6 °F 100.5 °F 69.8 °F 44% 29.91 in 10.0 mi Calm Calm - N/A   Clear
1:15 PM 96.1 °F 101.6 °F 68.7 °F 41% 29.90 in 10.0 mi SE 4.6 mph - N/A   Clear
1:35 PM 97.2 °F 101.9 °F 67.8 °F 38% 29.89 in 10.0 mi SSE 8.1 mph - N/A   Clear
1:55 PM 98.1 °F 101.8 °F 66.4 °F 35% 29.89 in 10.0 mi Calm Calm - N/A   Clear
2:15 PM 98.1 °F 103.0 °F 67.6 °F 37% 29.88 in 10.0 mi ESE 5.8 mph - N/A   Clear
2:35 PM 99.1 °F 103.8 °F 67.5 °F 35% 29.87 in 10.0 mi ESE 5.8 mph - N/A   Clear
2:55 PM 100.2 °F 105.3 °F 66.9 °F 34% 29.86 in 10.0 mi SE 6.9 mph - N/A   Clear
3:15 PM 100.8 °F 104.9 °F 66.0 °F 32% 29.85 in 10.0 mi ESE 4.6 mph - N/A   Clear
3:35 PM 101.3 °F 105.3 °F 65.3 °F 31% 29.84 in 10.0 mi East 5.8 mph - N/A   Clear
3:55 PM 101.1 °F 104.3 °F 64.2 °F 30% 29.83 in 10.0 mi ESE 5.8 mph 16.1 mph N/A   Clear
4:15 PM 102.2 °F 103.6 °F 61.5 °F 26% 29.82 in 10.0 mi ENE 5.8 mph - N/A   Clear
4:35 PM 102.6 °F 104.2 °F 61.7 °F 26% 29.81 in 10.0 mi SE 4.6 mph - N/A   Clear
4:55 PM 103.6 °F 104.7 °F 60.4 °F 24% 29.81 in 10.0 mi East 11.5 mph - N/A   Clear
5:15 PM 103.1 °F 103.8 °F 60.1 °F 24% 29.80 in 10.0 mi Calm Calm - N/A   Clear
5:35 PM 101.3 °F 102.2 °F 60.1 °F 26% 29.80 in 10.0 mi SE 8.1 mph - N/A   Clear
5:55 PM 100.8 °F 101.9 °F 60.6 °F 27% 29.80 in 10.0 mi ESE 5.8 mph - N/A   Clear
6:15 PM 100.4 °F 102.4 °F 62.6 °F 29% 29.79 in 10.0 mi SE 9.2 mph - N/A   Clear
6:35 PM 99.9 °F 102.1 °F 63.0 °F 30% 29.78 in 10.0 mi SE 9.2 mph - N/A   Clear
6:55 PM 99.0 °F 100.5 °F 62.8 °F 30% 29.78 in 10.0 mi SE 10.4 mph - N/A   Clear
7:15 PM 98.6 °F 101.0 °F 63.7 °F 32% 29.81 in 10.0 mi SE 11.5 mph 16.1 mph N/A   Clear
7:35 PM 97.2 °F 99.6 °F 64.6 °F 34% 29.81 in 10.0 mi SSE 15.0 mph - N/A   Clear
7:55 PM 96.4 °F 98.9 °F 64.6 °F 35% 29.81 in 10.0 mi SSE 13.8 mph 17.3 mph N/A   Clear
8:15 PM 95.5 °F 97.4 °F 63.9 °F 35% 29.82 in 10.0 mi SSE 11.5 mph - N/A   Clear
8:35 PM 95.2 °F 96.8 °F 63.7 °F 35% 29.84 in 10.0 mi SSE 10.4 mph - N/A   Clear
8:55 PM 94.1 °F 96.4 °F 64.6 °F 38% 29.84 in 10.0 mi SSE 9.2 mph - N/A   Clear
9:15 PM 93.6 °F 95.9 °F 65.3 °F 39% 29.84 in 10.0 mi SSE 11.5 mph - N/A   Clear
9:35 PM 92.8 °F 95.6 °F 65.7 °F 41% 29.85 in 10.0 mi SSE 9.2 mph - N/A   Clear
9:55 PM 92.5 °F 95.9 °F 67.1 °F 43% 29.85 in 10.0 mi SSE 13.8 mph 17.3 mph N/A   Scattered Clouds
10:15 PM 91.6 °F 95.7 °F 68.4 °F 46% 29.85 in 10.0 mi SSE 6.9 mph 10.4 mph N/A   Scattered Clouds
10:35 PM 90.9 °F 96.2 °F 70.0 °F 50% 29.85 in 10.0 mi SSE 12.7 mph 17.3 mph N/A   Mostly Cloudy
10:55 PM 90.0 °F 96.4 °F 71.1 °F 54% 29.86 in 10.0 mi SSE 13.8 mph - N/A   Scattered Clouds
11:15 PM 89.1 °F 96.5 °F 72.5 °F 58% 29.86 in 10.0 mi SSE 12.7 mph 17.3 mph N/A   Clear
11:35 PM 88.7 °F 96.7 °F 73.4 °F 60% 29.88 in 10.0 mi SSE 13.8 mph 17.3 mph N/A   Clear
11:55 PM 88.0 °F 97.0 °F 74.5 °F 64% 29.88 in 10.0 mi South 13.8 mph 19.6 mph N/A   Clear